CW3081 Weather Reports


Display with metric or nautical units.
time (UTC)temp
F
wind
direction
speed
MPH
gust
MPH
rain 1hr
in
rain 24hr
in
rain mn
in
humidity
%
barometer
mb
20260507011545 52 0 0.0 0.0 0.00 0.00 0.00 96 1015.3
20260507010043 53 0 0.0 0.0 0.00 0.00 0.00 96 1015.1
20260507004543 53 0 0.0 0.0 0.00 0.00 0.00 96 1014.0
20260507003039 53 0 0.0 0.0 0.00 0.00 0.00 96 1014.1
20260507001603 53 0 0.0 0.0 0.00 0.00 0.00 96 1013.3
20260507000046 54 0 0.0 0.0 0.00 0.00 0.00 96 1012.5
20260506234552 54 0 0.0 0.0 0.00 0.00 0.00 96 1012.5
20260506233052 54 0 0.0 0.0 0.00 0.00 0.00 96 1012.9
20260506231541 55 0 0.0 0.0 0.00 0.00 0.00 96 1013.5
20260506230049 55 0 0.0 0.0 0.00 0.00 0.00 96 1013.5
20260506224600 55 0 0.0 0.0 0.00 0.00 0.00 96 1013.5
20260506223041 55 0 0.0 0.0 0.00 0.00 0.00 96 1014.1
20260506221544 55 0 0.0 0.0 0.00 0.00 0.00 96 1013.7
20260506220051 55 0 0.0 0.0 0.00 0.00 0.00 96 1013.8
20260506214549 55 0 0.0 0.0 0.00 0.00 0.00 96 1013.7
20260506213046 55 0 0.0 0.0 0.00 0.00 0.00 96 1013.6
20260506211553 55 0 0.0 0.0 0.00 0.00 0.00 96 1013.6
20260506210045 54 0 0.0 0.0 0.00 0.00 0.00 96 1013.0
20260506204550 54 0 0.0 0.0 0.00 0.00 0.00 96 1013.3
20260506203057 54 0 0.0 0.0 0.00 0.00 0.00 96 1013.2
20260506201547 53 0 0.0 0.0 0.00 0.00 0.00 96 1013.3
20260506200047 53 0 0.0 0.0 0.00 0.00 0.00 96 1013.7
20260506194553 53 0 0.0 0.0 0.00 0.00 0.00 96 1013.6
20260506193050 52 0 0.0 0.0 0.00 0.00 0.00 96 1013.7
20260506191552 52 0 0.0 0.0 0.00 0.00 0.00 96 1012.9
20260506190046 52 0 0.0 0.0 0.00 0.00 0.00 97 1013.9
20260506184543 52 0 0.0 0.0 0.00 0.00 0.00 96 1013.3
20260506183051 52 0 0.0 1.0 0.00 0.00 0.00 96 1014.2
20260506181557 52 0 0.0 1.0 0.00 0.00 0.00 96 1014.1
20260506180049 52 0 0.0 0.0 0.00 0.00 0.00 96 1014.0
20260506174547 52 0 0.0 0.0 0.00 0.00 0.00 96 1013.9
20260506173107 52 0 0.0 1.0 0.00 0.00 0.00 96 1013.8
20260506171552 52 0 0.0 0.0 0.00 0.00 0.00 96 1013.0
20260506170058 52 0 0.0 0.0 0.00 0.00 0.00 96 1013.2
20260506164547 52 0 0.0 0.0 0.00 0.00 0.00 96 1013.3
20260506163048 52 0 0.0 1.0 0.00 0.00 0.00 96 1013.2
20260506161543 52 0 0.0 0.0 0.00 0.00 0.00 96 1013.1
20260506160107 52 0 0.0 0.0 0.00 0.00 0.00 96 1013.4
20260506154548 52 0 0.0 0.0 0.00 0.00 0.00 96 1013.5
20260506153040 51 0 0.0 1.0 0.00 0.00 0.00 96 1013.2
20260506151546 52 0 0.0 0.0 0.00 0.00 0.00 96 1013.3
20260506150048 52 0 0.0 0.0 0.00 0.00 0.00 96 1013.2
20260506144545 51 0 0.0 1.0 0.00 0.00 0.00 96 1013.1
20260506143042 51 0 0.0 1.0 0.00 0.00 0.00 96 1012.9
20260506141538 52 0 0.0 0.0 0.00 0.00 0.00 96 1012.6
20260506140041 51 0 0.0 1.0 0.00 0.00 0.00 96 1011.8
20260506134547 51 0 0.0 1.0 0.00 0.00 0.00 96 1011.5
20260506133051 51 0 0.0 0.0 0.00 0.00 0.00 96 1011.3
20260506131556 51 0 0.0 0.0 0.00 0.00 0.00 95 1011.2
20260506130053 0 0.0 0.0 0.00 0.00 0.00 1010.8
20260506124547 0 0.0 0.0 0.00 0.00 0.00 1010.2
20260506123045 0 0.0 0.0 0.00 0.00 0.00 1012.3
20260506121544 0 0.0 0.0 0.00 0.00 0.00 1012.0
20260506120044 0 0.0 0.0 0.00 0.00 0.00 1011.9
20260506114538 0 0.0 0.0 0.00 0.00 0.00 1010.8
20260506113047 0 0.0 0.0 0.00 0.00 0.00 1010.5
20260506111551 0 0.0 0.0 0.00 0.00 0.00 1010.5
20260506110049 0 0.0 0.0 0.00 0.00 0.00 1009.7
20260506104555 0 0.0 0.0 0.00 0.00 0.00 1009.2
20260506103044 0 0.0 0.0 0.00 0.00 0.00 1009.6
20260506101551 53 0 0.0 1.0 0.00 0.00 0.00 94 1009.9
20260506100045 53 0 0.0 1.0 0.00 0.00 0.00 94 1009.6
20260506094607 54 334 0.0 1.0 0.00 0.00 0.00 94 1009.5
20260506093044 54 0 0.0 1.0 0.00 0.00 0.00 93 1009.3
20260506091549 55 345 0.0 1.0 0.00 0.00 0.00 92 1009.4
20260506090046 57 332 0.0 2.0 0.00 0.00 0.00 91 1009.1
20260506084547 60 349 1.0 5.0 0.00 0.00 0.00 90 1008.9
20260506083046 65 39 0.0 1.0 0.00 0.00 0.00 93 1008.1
20260506081544 66 0 0.0 1.0 0.00 0.00 0.00 91 1007.8
20260506073042 70 236 1.0 4.0 0.00 0.00 0.00 78 1006.3
20260506071548 70 238 2.0 4.0 0.00 0.00 0.00 77 1006.0
20260506061551 70 232 1.0 5.0 0.00 0.00 0.00 76 1006.2
20260506060106 70 248 1.0 4.0 0.00 0.00 0.00 75 1006.7
20260506044547 70 236 3.0 6.0 0.00 0.00 0.00 74 1006.9
20260506043042 69 194 2.0 5.0 0.00 0.00 0.00 75 1007.2
20260506041550 68 253 2.0 5.0 0.00 0.00 0.00 76 1007.6
20260506040044 68 235 2.0 5.0 0.00 0.00 0.00 77 1007.5
20260506034541 68 165 2.0 4.0 0.00 0.00 0.00 77 1007.4
20260506033049 69 233 1.0 5.0 0.00 0.00 0.00 75 1008.1
20260506031548 68 234 1.0 4.0 0.00 0.00 0.00 76 1008.0
20260506030043 68 235 1.0 4.0 0.00 0.00 0.00 77 1007.9
20260506024546 68 208 1.0 4.0 0.00 0.00 0.00 78 1007.9
20260506023047 68 233 1.0 3.0 0.00 0.00 0.00 76 1007.9
20260506021541 67 212 1.0 4.0 0.00 0.00 0.00 77 1007.4
20260506020040 66 224 1.0 3.0 0.00 0.00 0.00 79 1007.5
20260506014546 65 225 1.0 3.0 0.00 0.00 0.00 83 1007.5
20260506013046 64 235 1.0 3.0 0.00 0.00 0.00 86 1007.8